This is the latest recevied weather packets stored in our database for station/object KE9ADS. If no packets are shown the sender has not sent any weather packets the latest 10 day(s).
| Time | Temp. | Humidity | Pressure | Rain* | Wind** | Luminosity | Snow |
|---|---|---|---|---|---|---|---|
| 1777525761 | 5° C | 74% | 1020.8 hPa | 0 mm | - | 0 W/m² | - |
| 1777525160 | 5° C | 74% | 1020.7 hPa | 0 mm | - | 0 W/m² | - |
| 1777524561 | 5° C | 72% | 1020.7 hPa | 0 mm | - | 0 W/m² | - |
| 1777523960 | 5° C | 72% | 1020.7 hPa | 0 mm | - | 0 W/m² | - |
| 1777523358 | 5.56° C | 70% | 1020.8 hPa | 0 mm | - | 0 W/m² | - |
| 1777522757 | 5.56° C | 69% | 1020.7 hPa | 0 mm | - | 0 W/m² | - |
| 1777522157 | 5.56° C | 67% | 1020.7 hPa | 0 mm | - | 0 W/m² | - |
| 1777521555 | 6.67° C | 63% | 1020.9 hPa | 0 mm | - | 0 W/m² | - |
| 1777520956 | 7.22° C | 60% | 1020.9 hPa | 0 mm | - | 0 W/m² | - |
| 1777520355 | 7.22° C | 59% | 1020.8 hPa | 0 mm | - | 0 W/m² | - |
| 1777519756 | 7.22° C | 59% | 1020.9 hPa | 0 mm | - | 0 W/m² | - |
| 1777519155 | 7.78° C | 58% | 1020.9 hPa | 0 mm | - | 0 W/m² | - |
| 1777518553 | 7.78° C | 54% | 1020.7 hPa | 0 mm | - | 0 W/m² | - |
| 1777517952 | 8.33° C | 54% | 1020.8 hPa | 0 mm | - | 0 W/m² | - |
| 1777517350 | 9.44° C | 51% | 1020.8 hPa | 0 mm | - | 0 W/m² | - |
| 1777516746 | 9.44° C | 47% | 1020.8 hPa | 0 mm | - | 0 W/m² | - |
| 1777516143 | 10° C | 45% | 1020.7 hPa | 0 mm | - | 0 W/m² | - |
| 1777515543 | 10.56° C | 43% | 1020.5 hPa | 0 mm | - | 0 W/m² | - |
| 1777514942 | 11.11° C | 40% | 1020.5 hPa | 0 mm | - | 0 W/m² | - |
| 1777514336 | 11.11° C | 40% | 1020.3 hPa | 0 mm | - | 0 W/m² | - |
| 1777513736 | 11.11° C | 40% | 1020.2 hPa | 0 mm | - | 0 W/m² | - |
| 1777513135 | 11.67° C | 39% | 1020 hPa | 0 mm | - | 0 W/m² | - |
| 1777512534 | 11.67° C | 38% | 1020.1 hPa | 0 mm | - | 0 W/m² | - |
| 1777511934 | 11.67° C | 38% | 1020 hPa | 0 mm | - | 0 W/m² | - |
| 1777511329 | 12.22° C | 36% | 1019.8 hPa | 0 mm | - | 0 W/m² | - |
* Rain latest hour (hover to see other rain measurements)
** Current wind speed in m/s (hover to see current wind gust speed)